EAG3274 SBBR-SBSP

Flight info

Callsign EAG3274
Flight time 1h 13m
Altitude 35000
Route GEBEP UZ2 ENTIT
Aircraft B738/M-SDE2E3FGHIRWXY/LB1

Departure

Time 2026-05-05 00:09
Airport Presidente Juscelino Kubitschek International Airport (SBBR)

Arrival

Time 2026-05-05 01:23
Airport Congonhas–Deputado Freitas Nobre Airport (SBSP)
Time Latitude Longitude Altitude Speed Heading
2026-05-04 23:48 -15.87269 -47.91985 3488 ft 0 kts 355°
2026-05-04 23:55 -15.87293 -47.91985 3487 ft 4 kts
2026-05-04 23:56 -15.87317 -47.91994 3487 ft 4 kts 46°
2026-05-04 23:56 -15.87325 -47.92009 3487 ft 0 kts 86°
2026-05-05 00:02 -15.87321 -47.91959 3487 ft 13 kts 86°
2026-05-05 00:02 -15.87315 -47.91864 3487 ft 13 kts 86°
2026-05-05 00:02 -15.87309 -47.91768 3487 ft 16 kts 86°
2026-05-05 00:02 -15.87283 -47.91671 3487 ft 10 kts 356°
2026-05-05 00:03 -15.87216 -47.91674 3487 ft 9 kts 357°
2026-05-05 00:03 -15.87143 -47.91678 3487 ft 12 kts 357°
2026-05-05 00:03 -15.87061 -47.91682 3487 ft 12 kts 357°
2026-05-05 00:03 -15.86983 -47.91686 3487 ft 11 kts 357°
2026-05-05 00:04 -15.86908 -47.91692 3487 ft 11 kts 355°
2026-05-05 00:04 -15.86805 -47.91698 3487 ft 21 kts 357°
2026-05-05 00:04 -15.86664 -47.91724 3487 ft 17 kts 305°
2026-05-05 00:04 -15.86632 -47.91837 3487 ft 16 kts 269°
2026-05-05 00:05 -15.86637 -47.91951 3487 ft 15 kts 267°
2026-05-05 00:05 -15.86643 -47.92058 3487 ft 14 kts 267°
2026-05-05 00:05 -15.86631 -47.92156 3487 ft 13 kts 288°
2026-05-05 00:05 -15.86593 -47.92242 3487 ft 13 kts 295°
2026-05-05 00:06 -15.86554 -47.92323 3487 ft 12 kts 297°
2026-05-05 00:06 -15.86525 -47.92404 3487 ft 12 kts 270°
2026-05-05 00:06 -15.86530 -47.92509 3487 ft 17 kts 266°
2026-05-05 00:06 -15.86538 -47.92628 3487 ft 16 kts 266°
2026-05-05 00:07 -15.86543 -47.92740 3487 ft 15 kts 287°
2026-05-05 00:07 -15.86485 -47.92768 3487 ft 15 kts 357°
2026-05-05 00:07 -15.86395 -47.92744 3487 ft 14 kts 47°
2026-05-05 00:07 -15.86349 -47.92672 3487 ft 8 kts 85°
2026-05-05 00:08 -15.86347 -47.92654 3487 ft 2 kts 85°
2026-05-05 00:08 -15.86346 -47.92642 3487 ft 2 kts 85°
2026-05-05 00:08 -15.86342 -47.92594 3487 ft 24 kts 85°
2026-05-05 00:08 -15.86318 -47.92194 3487 ft 86 kts 88°
2026-05-05 00:09 -15.86265 -47.91370 3487 ft 141 kts 86°
2026-05-05 00:09 -15.86191 -47.90215 3664 ft 173 kts 88°
2026-05-05 00:09 -15.86157 -47.88923 4291 ft 182 kts 92°
2026-05-05 00:09 -15.86536 -47.87644 4974 ft 190 kts 125°
2026-05-05 00:10 -15.87576 -47.86798 5664 ft 200 kts 157°
2026-05-05 00:10 -15.89011 -47.86480 6025 ft 224 kts 174°
2026-05-05 00:10 -15.90625 -47.86304 6335 ft 248 kts 173°
2026-05-05 00:10 -15.92446 -47.86088 6683 ft 271 kts 173°
2026-05-05 00:11 -15.94340 -47.85867 7238 ft 284 kts 173°
2026-05-05 00:11 -15.96334 -47.85635 7896 ft 292 kts 174°
2026-05-05 00:11 -15.98375 -47.85401 8547 ft 299 kts 175°
2026-05-05 00:11 -16.00446 -47.85166 8892 ft 300 kts 175°
2026-05-05 00:12 -16.02508 -47.84930 9246 ft 297 kts 175°
2026-05-05 00:12 -16.04559 -47.84696 10106 ft 297 kts 175°
2026-05-05 00:12 -16.06631 -47.84461 10845 ft 301 kts 176°
2026-05-05 00:12 -16.08753 -47.84379 11422 ft 311 kts 181°
2026-05-05 00:13 -16.10977 -47.84428 11804 ft 327 kts 182°
2026-05-05 00:13 -16.13313 -47.84458 12113 ft 344 kts 180°
2026-05-05 00:13 -16.15757 -47.84262 12380 ft 361 kts 173°
2026-05-05 00:13 -16.18277 -47.83718 12631 ft 377 kts 166°
2026-05-05 00:14 -16.20811 -47.82956 12896 ft 391 kts 163°
2026-05-05 00:14 -16.23433 -47.82061 13283 ft 400 kts 162°
2026-05-05 00:14 -16.26094 -47.81149 13799 ft 404 kts 162°
2026-05-05 00:14 -16.28784 -47.80248 14350 ft 407 kts 162°
2026-05-05 00:15 -16.31494 -47.79350 14855 ft 411 kts 163°
2026-05-05 00:15 -16.34224 -47.78454 15343 ft 414 kts 163°
2026-05-05 00:15 -16.36996 -47.77551 15832 ft 417 kts 163°
2026-05-05 00:15 -16.39767 -47.76651 16277 ft 421 kts 163°
2026-05-05 00:16 -16.42581 -47.75740 16713 ft 424 kts 163°
2026-05-05 00:16 -16.45415 -47.74823 17137 ft 427 kts 163°
2026-05-05 00:16 -16.48260 -47.73903 17540 ft 430 kts 163°
2026-05-05 00:16 -16.51126 -47.72981 17907 ft 433 kts 163°
2026-05-05 00:17 -16.54017 -47.72050 18301 ft 435 kts 163°
2026-05-05 00:17 -16.56912 -47.71116 18672 ft 438 kts 163°
2026-05-05 00:17 -16.59837 -47.70173 19030 ft 441 kts 163°
2026-05-05 00:17 -16.62768 -47.69227 19378 ft 443 kts 164°
2026-05-05 00:18 -16.65730 -47.68270 19716 ft 446 kts 164°
2026-05-05 00:18 -16.68697 -47.67311 20042 ft 448 kts 164°
2026-05-05 00:18 -16.71646 -47.66358 20369 ft 450 kts 164°
2026-05-05 00:18 -16.74647 -47.65388 20689 ft 452 kts 164°
2026-05-05 00:19 -16.77662 -47.64412 20961 ft 455 kts 164°
2026-05-05 00:19 -16.80696 -47.63430 21209 ft 458 kts 164°
2026-05-05 00:19 -16.83752 -47.62441 21484 ft 460 kts 164°
2026-05-05 00:19 -16.86819 -47.61448 21756 ft 463 kts 164°
2026-05-05 00:20 -16.89897 -47.60451 22034 ft 464 kts 164°
2026-05-05 00:20 -16.92997 -47.59447 22298 ft 466 kts 164°
2026-05-05 00:20 -16.96097 -47.58442 22551 ft 468 kts 164°
2026-05-05 00:20 -16.99208 -47.57433 22800 ft 470 kts 164°
2026-05-05 00:21 -17.02338 -47.56417 23037 ft 472 kts 164°
2026-05-05 00:21 -17.05470 -47.55401 23414 ft 469 kts 165°
2026-05-05 00:21 -17.08587 -47.54389 23618 ft 471 kts 165°
2026-05-05 00:21 -17.11739 -47.53366 23795 ft 474 kts 165°
2026-05-05 00:22 -17.14890 -47.52342 24003 ft 475 kts 165°
2026-05-05 00:22 -17.18050 -47.51315 24202 ft 476 kts 165°
2026-05-05 00:22 -17.21185 -47.50300 24332 ft 479 kts 165°
2026-05-05 00:22 -17.24423 -47.49248 24463 ft 481 kts 164°
2026-05-05 00:23 -17.27576 -47.48222 24598 ft 482 kts 164°
2026-05-05 00:23 -17.30780 -47.47178 24730 ft 483 kts 164°
2026-05-05 00:23 -17.33991 -47.46132 24801 ft 485 kts 165°
2026-05-05 00:23 -17.37221 -47.45079 24905 ft 487 kts 165°
2026-05-05 00:24 -17.40462 -47.44022 25066 ft 487 kts 165°
2026-05-05 00:24 -17.43691 -47.42969 25261 ft 486 kts 165°
2026-05-05 00:24 -17.46927 -47.41923 25354 ft 487 kts 166°
2026-05-05 00:24 -17.50226 -47.41093 25459 ft 487 kts 171°
2026-05-05 00:25 -17.53561 -47.40488 25573 ft 487 kts 173°
2026-05-05 00:25 -17.56917 -47.39969 25687 ft 488 kts 174°
2026-05-05 00:25 -17.60275 -47.39454 25747 ft 490 kts 174°
2026-05-05 00:25 -17.63654 -47.38933 25864 ft 490 kts 174°
2026-05-05 00:26 -17.67032 -47.38407 25978 ft 491 kts 174°
2026-05-05 00:26 -17.70428 -47.37876 26090 ft 492 kts 174°
2026-05-05 00:26 -17.73816 -47.37345 26206 ft 493 kts 174°
2026-05-05 00:26 -17.77206 -47.36812 26421 ft 491 kts 174°
2026-05-05 00:27 -17.80581 -47.36281 26551 ft 491 kts 174°
2026-05-05 00:27 -17.83962 -47.35749 26664 ft 491 kts 174°
2026-05-05 00:27 -17.87308 -47.35224 27244 ft 481 kts 175°
2026-05-05 00:27 -17.90581 -47.34709 27945 ft 469 kts 175°
2026-05-05 00:28 -17.93737 -47.34212 28636 ft 458 kts 175°
2026-05-05 00:28 -17.96918 -47.33711 29044 ft 456 kts 175°
2026-05-05 00:28 -18.00031 -47.33220 29157 ft 460 kts 176°
2026-05-05 00:28 -18.03201 -47.32720 29324 ft 462 kts 176°
2026-05-05 00:29 -18.06378 -47.32219 29527 ft 463 kts 176°
2026-05-05 00:29 -18.09571 -47.31714 29731 ft 464 kts 176°
2026-05-05 00:29 -18.12752 -47.31212 29899 ft 465 kts 176°
2026-05-05 00:29 -18.15974 -47.30703 30114 ft 465 kts 176°
2026-05-05 00:30 -18.19181 -47.30196 30301 ft 466 kts 176°
2026-05-05 00:30 -18.22391 -47.29688 30451 ft 468 kts 176°
2026-05-05 00:30 -18.25624 -47.29177 30634 ft 469 kts 176°
2026-05-05 00:30 -18.28858 -47.28665 30801 ft 470 kts 176°
2026-05-05 00:31 -18.32099 -47.28152 30915 ft 472 kts 176°
2026-05-05 00:31 -18.35347 -47.27637 31090 ft 473 kts 177°
2026-05-05 00:31 -18.38591 -47.27123 31329 ft 472 kts 177°
2026-05-05 00:31 -18.41829 -47.26610 31587 ft 470 kts 177°
2026-05-05 00:32 -18.45025 -47.26104 31835 ft 469 kts 177°
2026-05-05 00:32 -18.48214 -47.25601 32463 ft 456 kts 177°
2026-05-05 00:32 -18.51302 -47.25110 33362 ft 441 kts 177°
2026-05-05 00:32 -18.54310 -47.24632 33836 ft 435 kts 178°
2026-05-05 00:33 -18.57320 -47.24151 33915 ft 440 kts 178°
2026-05-05 00:33 -18.63457 -47.23177 33964 ft 450 kts 178°
2026-05-05 00:33 -18.66530 -47.22691 34492 ft 441 kts 178°
2026-05-05 00:34 -18.69553 -47.22208 34823 ft 439 kts 178°
2026-05-05 00:34 -18.75626 -47.21240 35081 ft 443 kts 178°
2026-05-05 00:34 -18.78667 -47.20756 35254 ft 443 kts 178°
2026-05-05 00:35 -18.81685 -47.20276 35261 ft 445 kts 178°
2026-05-05 00:35 -18.87833 -47.19299 35270 ft 447 kts 178°
2026-05-05 00:36 -18.93993 -47.18315 35270 ft 447 kts 178°
2026-05-05 00:36 -19.00125 -47.17335 35272 ft 447 kts 178°
2026-05-05 00:37 -19.06295 -47.16347 35272 ft 447 kts 178°
2026-05-05 00:37 -19.12451 -47.15362 35272 ft 447 kts 178°
2026-05-05 00:38 -19.18613 -47.14406 35274 ft 447 kts 179°
2026-05-05 00:38 -19.24788 -47.13546 35274 ft 447 kts 178°
2026-05-05 00:39 -19.30947 -47.12677 35275 ft 447 kts 178°
2026-05-05 00:39 -19.37119 -47.11803 35276 ft 447 kts 178°
2026-05-05 00:40 -19.43296 -47.10924 35276 ft 447 kts 178°
2026-05-05 00:40 -19.49427 -47.10052 35276 ft 448 kts 178°
2026-05-05 00:41 -19.55656 -47.09168 35276 ft 449 kts 178°
2026-05-05 00:41 -19.61823 -47.08291 35277 ft 449 kts 178°
2026-05-05 00:42 -19.68017 -47.07407 35264 ft 448 kts 179°
2026-05-05 00:42 -19.74174 -47.06529 35249 ft 445 kts 179°
2026-05-05 00:43 -19.80324 -47.05652 35243 ft 446 kts 179°
2026-05-05 00:43 -19.86475 -47.04773 35243 ft 446 kts 179°
2026-05-05 00:44 -19.92604 -47.03896 35244 ft 446 kts 179°
2026-05-05 00:44 -19.98756 -47.03015 35244 ft 446 kts 179°
2026-05-05 00:45 -20.04911 -47.02134 35245 ft 446 kts 179°
2026-05-05 00:45 -20.11069 -47.01251 35247 ft 446 kts 179°
2026-05-05 00:46 -20.17139 -47.00380 35247 ft 446 kts 179°
2026-05-05 00:46 -20.23299 -46.99495 35251 ft 446 kts 179°
2026-05-05 00:47 -20.29462 -46.98609 35252 ft 446 kts 179°
2026-05-05 00:47 -20.35580 -46.97729 35252 ft 446 kts 179°
2026-05-05 00:48 -20.41738 -46.96843 35256 ft 446 kts 179°
2026-05-05 00:48 -20.47905 -46.95956 35257 ft 447 kts 179°
2026-05-05 00:49 -20.54066 -46.95069 35257 ft 446 kts 179°
2026-05-05 00:49 -20.60233 -46.94178 35261 ft 447 kts 179°
2026-05-05 00:50 -20.66389 -46.93288 35263 ft 447 kts 179°
2026-05-05 00:50 -20.72513 -46.92402 35260 ft 446 kts 179°
2026-05-05 00:51 -20.78680 -46.91509 35258 ft 448 kts 179°
2026-05-05 00:51 -20.84870 -46.90547 35238 ft 448 kts 178°
2026-05-05 00:52 -20.91030 -46.89581 35227 ft 448 kts 178°
2026-05-05 00:52 -20.97215 -46.88613 35235 ft 449 kts 178°
2026-05-05 00:53 -21.03403 -46.87643 35235 ft 448 kts 178°
2026-05-05 00:53 -21.08531 -46.86840 35241 ft 449 kts 178°
2026-05-05 00:54 -21.09798 -46.86641 35243 ft 449 kts 178°
2026-05-05 00:56 -21.12398 -46.86234 35249 ft 450 kts 178°
2026-05-05 00:56 -21.18602 -46.85265 35260 ft 450 kts 178°
2026-05-05 00:57 -21.24816 -46.84292 35258 ft 451 kts 178°
2026-05-05 00:57 -21.30903 -46.83338 35266 ft 452 kts 178°
2026-05-05 00:58 -21.37115 -46.82362 35270 ft 452 kts 178°
2026-05-05 00:58 -21.43298 -46.81390 35270 ft 452 kts 178°
2026-05-05 00:59 -21.49525 -46.80411 35279 ft 452 kts 178°
2026-05-05 00:59 -21.55757 -46.79429 35280 ft 452 kts 178°
2026-05-05 01:00 -21.61968 -46.78450 35281 ft 452 kts 178°
2026-05-05 01:00 -21.68192 -46.77469 35289 ft 452 kts 178°
2026-05-05 01:01 -21.74426 -46.76484 35289 ft 452 kts 178°
2026-05-05 01:01 -21.80608 -46.75507 35244 ft 452 kts 179°
2026-05-05 01:02 -21.85623 -46.74714 35214 ft 452 kts 179°
2026-05-05 01:02 -21.91852 -46.73728 35195 ft 452 kts 179°
2026-05-05 01:03 -21.98065 -46.72744 35186 ft 452 kts 179°
2026-05-05 01:03 -22.04286 -46.71758 35186 ft 452 kts 179°
2026-05-05 01:04 -22.10494 -46.70773 35189 ft 445 kts 179°
2026-05-05 01:04 -22.16419 -46.69834 35184 ft 414 kts 179°
2026-05-05 01:04 -22.19221 -46.69389 35183 ft 400 kts 179°
2026-05-05 01:05 -22.21930 -46.68957 35181 ft 387 kts 180°
2026-05-05 01:05 -22.24544 -46.68541 35180 ft 373 kts 180°
2026-05-05 01:05 -22.27110 -46.68133 34726 ft 373 kts 180°
2026-05-05 01:05 -22.29729 -46.67715 33679 ft 388 kts 180°
2026-05-05 01:06 -22.32457 -46.67280 32500 ft 405 kts 179°
2026-05-05 01:06 -22.35315 -46.66824 31170 ft 424 kts 179°
2026-05-05 01:06 -22.38288 -46.66492 29767 ft 434 kts 188°
2026-05-05 01:06 -22.41224 -46.67038 29005 ft 424 kts 204°
2026-05-05 01:07 -22.43830 -46.68457 28591 ft 420 kts 218°
2026-05-05 01:07 -22.46179 -46.70360 28165 ft 423 kts 221°
2026-05-05 01:07 -22.48453 -46.72395 27738 ft 424 kts 225°
2026-05-05 01:07 -22.50523 -46.74646 27313 ft 421 kts 227°
2026-05-05 01:08 -22.52616 -46.76812 26582 ft 421 kts 225°
2026-05-05 01:08 -22.54784 -46.78953 25516 ft 426 kts 224°
2026-05-05 01:08 -22.57006 -46.81144 24219 ft 437 kts 224°
2026-05-05 01:08 -22.59237 -46.83419 23119 ft 443 kts 224°
2026-05-05 01:09 -22.61476 -46.85695 22405 ft 439 kts 224°
2026-05-05 01:09 -22.63685 -46.87935 22008 ft 428 kts 224°
2026-05-05 01:09 -22.65830 -46.90104 21767 ft 414 kts 223°
2026-05-05 01:09 -22.68009 -46.92072 21245 ft 408 kts 217°
2026-05-05 01:10 -22.70373 -46.93793 20738 ft 406 kts 214°
2026-05-05 01:10 -22.72766 -46.95423 20578 ft 408 kts 213°
2026-05-05 01:10 -22.75186 -46.97064 20453 ft 412 kts 213°
2026-05-05 01:10 -22.77618 -46.98719 20367 ft 415 kts 214°
2026-05-05 01:11 -22.80074 -47.00395 20222 ft 416 kts 214°
2026-05-05 01:11 -22.82502 -47.02052 19910 ft 403 kts 214°
2026-05-05 01:11 -22.84838 -47.03571 19557 ft 393 kts 208°
2026-05-05 01:11 -22.87451 -47.04347 19148 ft 392 kts 187°
2026-05-05 01:12 -22.90164 -47.04163 18763 ft 391 kts 174°
2026-05-05 01:12 -22.92798 -47.03502 17867 ft 400 kts 167°
2026-05-05 01:12 -22.95463 -47.02452 16787 ft 415 kts 160°
2026-05-05 01:12 -22.98093 -47.01129 16007 ft 417 kts 158°
2026-05-05 01:13 -23.00706 -46.99780 15413 ft 410 kts 157°
2026-05-05 01:13 -23.03233 -46.98470 14428 ft 397 kts 157°
2026-05-05 01:13 -23.05708 -46.97188 13277 ft 392 kts 156°
2026-05-05 01:13 -23.08149 -46.95923 12141 ft 386 kts 156°
2026-05-05 01:14 -23.10549 -46.94679 11022 ft 380 kts 156°
2026-05-05 01:14 -23.12918 -46.93451 9927 ft 373 kts 156°
2026-05-05 01:14 -23.15238 -46.92249 8918 ft 364 kts 155°
2026-05-05 01:14 -23.17490 -46.91081 8087 ft 352 kts 155°
2026-05-05 01:15 -23.19655 -46.89958 7526 ft 335 kts 155°
2026-05-05 01:15 -23.21671 -46.88914 7139 ft 316 kts 155°
2026-05-05 01:15 -23.23602 -46.87922 6865 ft 297 kts 155°
2026-05-05 01:15 -23.25406 -46.86993 6670 ft 276 kts 155°
2026-05-05 01:16 -23.27083 -46.86126 6424 ft 260 kts 155°
2026-05-05 01:16 -23.28691 -46.85293 5986 ft 253 kts 154°
2026-05-05 01:16 -23.30260 -46.84479 5693 ft 249 kts 154°
2026-05-05 01:16 -23.31829 -46.83664 5621 ft 249 kts 154°
2026-05-05 01:17 -23.33398 -46.82851 5558 ft 251 kts 155°
2026-05-05 01:17 -23.35033 -46.82162 5494 ft 252 kts 161°
2026-05-05 01:17 -23.36713 -46.81581 5430 ft 255 kts 162°
2026-05-05 01:17 -23.38421 -46.80998 5369 ft 258 kts 162°
2026-05-05 01:18 -23.40140 -46.80410 5307 ft 259 kts 162°
2026-05-05 01:18 -23.41830 -46.79736 5243 ft 259 kts 154°
2026-05-05 01:18 -23.43403 -46.78793 5181 ft 257 kts 148°
2026-05-05 01:18 -23.44883 -46.77767 5112 ft 246 kts 147°
2026-05-05 01:19 -23.46277 -46.76804 5066 ft 234 kts 147°
2026-05-05 01:19 -23.47633 -46.75876 4996 ft 222 kts 147°
2026-05-05 01:19 -23.48921 -46.74999 4945 ft 214 kts 147°
2026-05-05 01:19 -23.50151 -46.74163 4886 ft 205 kts 147°
2026-05-05 01:20 -23.51333 -46.73359 4795 ft 190 kts 147°
2026-05-05 01:20 -23.52421 -46.72620 4709 ft 179 kts 147°
2026-05-05 01:20 -23.53447 -46.71922 4557 ft 175 kts 147°
2026-05-05 01:20 -23.54466 -46.71229 4373 ft 170 kts 147°
2026-05-05 01:21 -23.55460 -46.70554 4131 ft 166 kts 147°
2026-05-05 01:21 -23.56431 -46.69893 3918 ft 161 kts 147°
2026-05-05 01:21 -23.57352 -46.69267 3721 ft 153 kts 147°
2026-05-05 01:21 -23.58249 -46.68657 3518 ft 152 kts 147°
2026-05-05 01:22 -23.59147 -46.68046 3324 ft 153 kts 147°
2026-05-05 01:22 -23.60047 -46.67433 3128 ft 152 kts 147°
2026-05-05 01:22 -23.60945 -46.66824 2929 ft 152 kts 147°
2026-05-05 01:22 -23.61844 -46.66215 2712 ft 152 kts 147°
2026-05-05 01:23 -23.62697 -46.65626 2640 ft 129 kts 149°
2026-05-05 01:23 -23.63095 -46.65351 2639 ft 19 kts 162°
2026-05-05 01:23 -23.63172 -46.65408 2639 ft 14 kts 253°
2026-05-05 01:23 -23.63116 -46.65477 2639 ft 13 kts 329°
2026-05-05 01:24 -23.63037 -46.65520 2639 ft 12 kts 350°
2026-05-05 01:24 -23.62959 -46.65551 2639 ft 12 kts 324°
2026-05-05 01:24 -23.62892 -46.65602 2639 ft 11 kts 328°
2026-05-05 01:24 -23.62825 -46.65646 2639 ft 11 kts 329°
2026-05-05 01:25 -23.62761 -46.65689 2639 ft 11 kts 329°
2026-05-05 01:25 -23.62701 -46.65731 2639 ft 10 kts 327°
2026-05-05 01:25 -23.62702 -46.65789 2639 ft 10 kts 233°
2026-05-05 01:25 -23.62722 -46.65821 2639 ft 0 kts 237°